Location: Baarleveld
(51.0452°N, 3.6062°E)
Time: 05:57:50
(UTC+00:00)

BREEZE-M R/B - Pass Details

Date: 06 September 2025
Orbit: 306 x 3897 km, 49.7° (Epoch: 14 December)

Event Time Altitude Azimuth Distance (km) Brightness Sun altitude
Rises 19:08:08 0° 258° (WSW) 3,300 7.9 -8.2°
Reaches altitude 10° 19:11:12 10° 256° (WSW) 1,937 6.5 -8.6°
Maximum altitude 19:15:09 65° 175° (S) 454 2.3 -9.2°
Enters shadow 19:17:21 14° 93° (E) 1,105 3.8 -9.5°
